Location: Miami, Florida
(25.6830°N, 80.1700°W)
Time: 12:46:33
(UTC-04:00)

N. Korean satellite - Pass Details

Date: 16 November 2017
Orbit: 460 x 514 km, 97.2° (Epoch: 24 November)

Event Time Altitude Azimuth Distance (km) Brightness Sun altitude
Rises 20:29:52 0° 211° (SSW) 2,470 10.7 -26.6°
Reaches altitude 10° 20:33:27 10° 252° (WSW) 1,606 10.2 -27.4°
Maximum altitude 20:34:14 11° 265° (W) 1,570 10.1 -27.5°
Drops below altitude 10° 20:35:02 10° 279° (W) 1,611 10.1 -27.7°
Sets 20:38:40 0° 319° (NW) 2,502 10.6 -28.5°
